カタログに戻る

STARLINK-32604

運用中通信VLEO
NORAD 62070·PAYLOAD·🇺🇸 United States

打ち上げ Nov 24, 2024 から Vandenberg Space Force Base

Loading…

次のパス (今後24時間)

TLE

最新Source: CelesTrak SupGP

元期: Sep 15, 2026, 03:26 UTC

1 62070C 24217P   26258.14354167  .00030190  00000+0  89221-3 0  2580
2 62070  53.1587  30.4936 0000868 100.4166 332.6359 15.34367870    17

AllMySatでSTARLINK-32604をリアルタイム追跡

Download on the App Store